sat.trackr.live / text

‹ back to catalog

STARLINK-36109

NORAD 66943 · 2025-286U

PAYLOAD ACTIVE UNKNOWN

§ Identity

Operator
Country
US
Launch date
2025-12-07
Launch site
AFWTR
Launch vehicle
Mass (kg)
RCS (m²)

Purposes: comms

External: N2YO · Heavens-Above · Gunter

§ Orbital elements

Epoch: 2026-05-25T04:00:03.998880Z

Period
93.85 min
Inclination
53.1594°
Eccentricity
0.0001432
Mean motion
15.34391152 rev/d
Perigee alt
461.7 km
Apogee alt
463.7 km
Semi-major
6,840.9 km
B*
8.2231e-5
RAAN
2.7137°
Arg perigee
82.6058°
Mean anomaly
251.1431°
Rev number
585

§ Raw data

STARLINK-361091 66943U 25286U   26145.16671295  .00002402  00000+0  82231-4 0  99932 66943  53.1594   2.7137 0001432  82.6058 251.1431 15.34391152  5855

JSON: /api/v1/satellites/66943 · /tle

For live sub-satellite position, see the globe view (requires WebGL).

§ Visibility from observer

Set your observer location to see the next 7 days of passes ≥ 10°. The values pass through the URL so the page stays shareable.

No JS? Fill the form by hand. The geolocation button needs JavaScript.